星链-35858(STARLINK-35858)

导读

STARLINK-35858是美国于2025年12月31日发射的星链低轨互联网卫星,隶属于SpaceX公司星链卫星互联网项目,该项目旨在为全球范围提供高速低延迟的宽带网络服务,这颗卫星将在预定轨道运行,承担信号转发覆盖任务,进一步扩充星链星座组网规模,提升全球网络覆盖能力与服务稳定性。

Basic Information
目录编号:
66833
目录名称:
STARLINK-35858
国际标识:
2025-280N
轨道中心:
EARTH
卫星名称:
星链-35858
卫星全名:
星链-35858(STARLINK-35858)
卫星状态:
在轨 (已飞行276 天)
发射日期:
2025-12-02 UTC
国别 :
美国 (US)
星等 :
--
Orbit Information
数据来源 国际轨道数据 AOE轨道数据
星历时间 2026-09-04T14:02:04+0800
14小时前
查看轨道信息
2026-09-04T12:00:00+0800
16小时前
查看轨道信息
半长轴 6950.186km 6950.212km
偏心率 0.0003798 0.0003864
轨道倾角 69.999° 69.997°
近地点辐角 265.881° 268.358°
升交点赤经 244.201° 244.414°
平近点角 94.192° 354.551°
近地点 569.409km 569.389km
远地点 574.689km 574.761km
周期 96.107分钟 96.107分钟
每日圈数 14.983324 14.983239
Detailed Information
固有亮度:
5
最大亮度:
2.5
卫星平台:
Starlink V1.0
覆盖范围:
全球
运营商:
太空探索技术公司
运营商所在国:
美国
制造商(研发单位):
太空探索技术公司
制造商所在国:
美国
使用方式:
暂无
Satellite Introduction
Starlink 计划是 SpaceX 推出的全球卫星互联网项目,通过发射低轨道卫星,为全球尤其是偏远地区提供高速、低延迟的互联网服务。自 2019 年起,Starlink 已部署数千颗卫星,旨在缩小全球数字鸿沟,推动互联网普及。该项目还为军事、航空等行业提供通信支持,带来广泛经济效益。
2D Orbit Map
3D Orbit Map
Orbit Altitude Analysis Chart
Orbit Inclination Analysis Chart
Orbit Comprehensive Analysis Chart
View Comprehensive Chart
Conjunction Data List
Event ID Objects TCA Miss Dist (km) Collision Risk Probability Collision Risk Index (CRI) Action
CDM_260906-031205-414906-683322
GSLV R/B (54149)
2026-09-06T
03:12:12+0000
1.202 km
极远距离
1.354691E-5 中风险 0.58